Paynesville, MN

11:03 AM CDT on April 30, 2017 (GMT -0500)
Paynesville

Weather History for KPEX - November, 2013

Change the Weather History Date:

Saturday, November 2, 2013

  Actual Average (KLJF) Record (KLJF)
Temperature  
Mean Temperature 38 °F -  
Max Temperature 49 °F 48 °F 73 °F (1978)
Min Temperature 28 °F 30 °F 3 °F (1951)
Degree Days  
Heating Degree Days 26    
Moisture  
Dew Point 32 °F    
Average Humidity 82    
Maximum Humidity 99    
Minimum Humidity 52    
Precipitation  
Precipitation 0.00 in - - ()
Sea Level Pressure  
Sea Level Pressure 30.02 in    
Wind  
Wind Speed 5 mph (WNW)    
Max Wind Speed 10 mph    
Max Gust Speed -    
Visibility 9 miles    
Events      
Averages and records for this station are not official NWS values.
T = Trace of Precipitation, MM = Missing Value Source: NWS Daily Summary

Daily Weather History Graph

Daily Weather History Graph

Search for Another Location

Airport or City:

Trip Planner

Search our weather history database for the weather conditions in past years. The results will help you decide how hot, cold, wet, or windy it might be!

Date:

Astronomy

Nov. 02, 2013 Rise Set
Actual Time 7:59 AM CDT 6:04 PM CDT
Civil Twilight 7:29 AM CDT 6:35 PM CDT
Nautical Twilight 6:54 AM CDT 7:10 PM CDT
Astronomical Twilight 6:19 AM CDT 7:44 PM CDT
Moon 6:56 AM CDT (11/2) 5:37 PM CDT (11/2)
Length of Visible Light 11h 06m
Length of Day
10h 04m
Waning Crescent, 1% of the Moon is Illuminated
Nov 2
Waning Crescent
Nov 3
New
Nov 9
First Quarter
Nov 17
Full
Nov 25
Last Quarter

Hourly Weather History & Observations

Time (CDT) Temp. Windchill Dew Point Humidity Pressure Visibility Wind Dir Wind Speed Gust Speed Precip Events Conditions
12:13 AM 40.3 °F 34.4 °F 34.7 °F 80% 29.89 in 10.0 mi WNW 9.2 mph - N/A   Overcast
12:33 AM 40.1 °F 33.6 °F 34.0 °F 79% 29.89 in 10.0 mi WNW 10.4 mph - N/A   Overcast
12:52 AM 38.7 °F 33.6 °F 33.3 °F 81% 29.90 in 10.0 mi NW 6.9 mph - N/A   Scattered Clouds
1:13 AM 37.4 °F 32.1 °F 32.2 °F 81% 29.91 in 10.0 mi WNW 6.9 mph - N/A   Clear
1:33 AM 36.0 °F 31.1 °F 32.0 °F 86% 29.91 in 10.0 mi WNW 5.8 mph - N/A   Clear
1:53 AM 35.6 °F 29.9 °F 31.5 °F 85% 29.92 in 10.0 mi WNW 6.9 mph - N/A   Clear
2:12 AM 34.9 °F 29.9 °F 31.1 °F 86% 29.92 in 10.0 mi WNW 5.8 mph - N/A   Clear
2:33 AM 34.3 °F 28.4 °F 31.1 °F 88% 29.93 in 10.0 mi West 6.9 mph - N/A   Clear
2:52 AM 34.2 °F 28.2 °F 31.1 °F 89% 29.94 in 10.0 mi West 6.9 mph - N/A   Clear
3:13 AM 34.0 °F 28.0 °F 31.5 °F 90% 29.94 in 10.0 mi West 6.9 mph - N/A   Clear
3:33 AM 34.0 °F 28.8 °F 31.6 °F 91% 29.94 in 10.0 mi West 5.8 mph - N/A   Clear
3:52 AM 34.2 °F 29.0 °F 32.0 °F 92% 29.94 in 10.0 mi West 5.8 mph - N/A   Clear
4:13 AM 34.0 °F 28.0 °F 32.0 °F 92% 29.95 in 10.0 mi West 6.9 mph - N/A   Clear
4:33 AM 33.3 °F 27.9 °F 31.8 °F 94% 29.96 in 10.0 mi WNW 5.8 mph - N/A   Clear
4:52 AM 32.7 °F 29.6 °F 31.3 °F 94% 29.96 in 10.0 mi West 3.5 mph - N/A   Clear
5:13 AM 31.8 °F 27.3 °F 30.6 °F 95% 29.97 in 10.0 mi WNW 4.6 mph - N/A   Clear
5:33 AM 32.9 °F 27.5 °F 32.0 °F 96% 29.98 in 10.0 mi WNW 5.8 mph - N/A   Clear
5:53 AM 31.6 °F 26.0 °F 30.2 °F 94% 29.99 in 7.0 mi West 5.8 mph - N/A   Clear
6:12 AM 31.1 °F - 30.0 °F 96% 30.00 in 7.0 mi Calm Calm - N/A   Clear
6:32 AM 29.3 °F 24.3 °F 28.4 °F 96% 30.00 in 5.0 mi West 4.6 mph - N/A   Clear
6:53 AM 29.3 °F - 28.4 °F 96% 30.01 in 5.0 mi Calm Calm - N/A   Clear
7:13 AM 28.6 °F - 27.9 °F 97% 30.01 in 4.0 mi Calm Calm - N/A   Scattered Clouds
7:32 AM 29.8 °F - 29.1 °F 97% 30.01 in 2.5 mi Calm Calm - N/A   Overcast
7:53 AM 30.0 °F 24.1 °F 29.3 °F 97% 30.03 in 4.0 mi West 5.8 mph - N/A   Overcast
8:13 AM 31.1 °F 27.7 °F 30.6 °F 98% 30.03 in 3.0 mi West 3.5 mph - N/A   Overcast
8:33 AM 31.6 °F - 31.1 °F 98% 30.03 in 3.0 mi Calm Calm - N/A   Overcast
8:53 AM 32.0 °F - 31.5 °F 98% 30.03 in 2.5 mi Calm Calm - N/A   Overcast
9:12 AM 32.0 °F - 31.8 °F 99% 30.04 in 3.0 mi Calm Calm - N/A   Overcast
9:32 AM 32.9 °F - 32.2 °F 97% 30.04 in 4.0 mi Calm Calm - N/A   Overcast
9:53 AM 33.8 °F 28.6 °F 33.1 °F 97% 30.05 in 4.0 mi West 5.8 mph - N/A   Overcast
10:12 AM 34.7 °F 28.8 °F 33.8 °F 97% 30.06 in 5.0 mi West 6.9 mph - N/A   Overcast
10:33 AM 36.3 °F 33.7 °F 35.4 °F 97% 30.06 in 7.0 mi West 3.5 mph - N/A   Overcast
10:53 AM 37.4 °F 34.9 °F 35.1 °F 91% 30.06 in 10.0 mi West 3.5 mph - N/A   Mostly Cloudy
11:12 AM 39.2 °F - 35.1 °F 85% 30.06 in 10.0 mi Calm Calm - N/A   Scattered Clouds
11:33 AM 41.0 °F - 33.8 °F 76% 30.06 in 10.0 mi Calm Calm - N/A   Clear
11:52 AM 42.3 °F - 33.4 °F 71% 30.07 in 10.0 mi Calm Calm - N/A   Clear
12:13 PM 43.7 °F 40.3 °F 34.5 °F 70% 30.07 in 10.0 mi West 5.8 mph - N/A   Clear
12:33 PM 44.6 °F 43.1 °F 33.6 °F 65% 30.07 in 10.0 mi WNW 3.5 mph - N/A   Clear
12:53 PM 45.9 °F 43.6 °F 34.9 °F 66% 30.06 in 10.0 mi WNW 4.6 mph - N/A   Clear
1:13 PM 45.9 °F 41.7 °F 33.8 °F 63% 30.06 in 10.0 mi NW 8.1 mph - N/A   Scattered Clouds
1:32 PM 46.4 °F 43.5 °F 34.3 °F 63% 30.05 in 10.0 mi NNW 5.8 mph - N/A   Scattered Clouds
1:53 PM 46.4 °F 43.5 °F 33.6 °F 61% 30.05 in 10.0 mi West 5.8 mph - N/A   Scattered Clouds
2:13 PM 46.8 °F - 33.4 °F 60% 30.04 in 10.0 mi NNW 9.2 mph - N/A   Scattered Clouds
2:33 PM 47.1 °F - 33.4 °F 59% 30.05 in 10.0 mi NW 8.1 mph - N/A   Scattered Clouds
2:52 PM 48.7 °F - 33.1 °F 55% 30.05 in 10.0 mi West 5.8 mph - N/A   Mostly Cloudy
3:13 PM 49.3 °F - 32.4 °F 52% 30.05 in 10.0 mi WSW 8.1 mph - N/A   Overcast
3:32 PM 48.2 °F - 31.8 °F 53% 30.04 in 10.0 mi West 9.2 mph - N/A   Overcast
3:53 PM 48.4 °F - 31.6 °F 52% 30.05 in 10.0 mi WNW 8.1 mph - N/A   Scattered Clouds
4:13 PM 47.3 °F - 31.6 °F 55% 30.05 in 10.0 mi West 6.9 mph - N/A   Clear
4:33 PM 47.8 °F - 32.0 °F 54% 30.05 in 10.0 mi WNW 5.8 mph - N/A   Scattered Clouds
4:52 PM 47.7 °F - 32.2 °F 55% 30.05 in 10.0 mi WNW 4.6 mph - N/A   Clear
5:12 PM 46.6 °F - 32.4 °F 58% 30.05 in 10.0 mi West 5.8 mph - N/A   Clear
5:33 PM 45.5 °F - 32.5 °F 61% 30.05 in 10.0 mi Calm Calm - N/A   Clear
5:52 PM 44.6 °F - 32.2 °F 62% 30.05 in 10.0 mi Calm Calm - N/A   Clear
6:13 PM 41.2 °F - 31.8 °F 69% 30.04 in 10.0 mi Calm Calm - N/A   Clear
6:32 PM 39.0 °F - 32.2 °F 76% 30.04 in 10.0 mi Calm Calm - N/A   Clear
6:53 PM 38.5 °F - 32.0 °F 78% 30.05 in 10.0 mi Calm Calm - N/A   Clear
7:13 PM 36.5 °F - 31.1 °F 81% 30.05 in 10.0 mi Calm Calm - N/A   Clear
7:33 PM 34.3 °F - 30.6 °F 86% 30.05 in 10.0 mi Calm Calm - N/A   Clear
7:53 PM 32.9 °F - 30.0 °F 89% 30.05 in 10.0 mi Calm Calm - N/A   Clear
8:12 PM 32.5 °F - 30.2 °F 91% 30.05 in 10.0 mi Calm Calm - N/A   Clear
8:33 PM 32.0 °F - 30.0 °F 92% 30.05 in 10.0 mi Calm Calm - N/A   Clear
8:52 PM 30.9 °F - 29.5 °F 94% 30.05 in 10.0 mi Calm Calm - N/A   Clear
9:13 PM 31.1 °F - 28.9 °F 92% 30.05 in 10.0 mi Calm Calm - N/A   Clear
9:33 PM 30.9 °F - 28.4 °F 90% 30.05 in 10.0 mi Calm Calm - N/A   Clear
9:53 PM 30.9 °F - 29.3 °F 94% 30.05 in 10.0 mi Calm Calm - N/A   Clear
10:13 PM 30.6 °F - 29.1 °F 94% 30.06 in 10.0 mi Calm Calm - N/A   Clear
10:33 PM 30.7 °F - 29.5 °F 95% 30.06 in 10.0 mi Calm Calm - N/A   Clear
10:53 PM 30.2 °F - 28.6 °F 94% 30.06 in 10.0 mi Calm Calm - N/A   Clear
11:13 PM 36.3 °F 30.8 °F 34.7 °F 94% 30.06 in 10.0 mi SSE 6.9 mph - N/A   Clear
11:32 PM 38.1 °F 33.7 °F 33.4 °F 83% 30.06 in 10.0 mi SE 5.8 mph - N/A   Clear
11:53 PM 38.5 °F 32.7 °F 33.4 °F 82% 30.06 in 10.0 mi SSE 8.1 mph - N/A   Clear